TIANMU-1 06

Last updated on Wed Sep 23 2026 00:03:10 GMT+0000 (Coordinated Universal Time)

1 55976U 23039D 26265.58318942 .00012104 00000+0 21488-3 0 9993 2 55976 97.5252 83.9065 0003546 106.2950 253.8692 15.50364652195924
UTC large
Height (km)
Speed (km/s)
/
Latitude / Longitude
Inclination (degrees)
Orbital Period (minutes)
Azimuth
Elevation
Range (km)
Doppler Factor

Next 0 passes for location: London (51.5072 / 0.1276)

No passes found over London.
TIANMU-1 06